Location: ?????????
(41.2286°N, 23.0068°E)
Time: 01:55:09
(UTC+00:00)

Cosmos 2322 - Pass Details

Date: 08 November 2025
Orbit: 841 x 852 km, 71.0° (Epoch: 07 December)

Event Time Altitude Azimuth Distance (km) Brightness Sun altitude
Exits shadow 03:07:48 38° 226° (SW) 1,260 4.2 -22.8°
Maximum altitude 03:09:56 68° 296° (WNW) 913 3.6 -22.4°
Drops below altitude 10° 03:15:35 10° 19° (NNE) 2,473 6.3 -21.3°
Sets 03:18:04 0° 22° (NNE) 3,410 7.1 -20.8°
